| time (UTC) | temp C | wind direction | speed KPH | gust KPH | rain 1hr cm | rain 24hr cm | rain mn cm | humidity % | barometer mb |
| 20260506135530 | 22 | 0.0 | 0.0 | 0.03 | 0.03 | 0.03 | 99 | 1013.2 | |
| 20260506135513 | 22 | 93 | 1.6 | 4.8 | 0.00 | 0.00 | 0.00 | 99 | 1011.3 |
| 20260506134532 | 22 | 0.0 | 4.8 | 0.00 | 0.00 | 0.00 | 99 | 1012.8 | |
| 20260506133516 | 22 | 0.0 | 0.0 | 0.00 | 0.00 | 0.00 | 99 | 1012.1 | |
| 20260506132518 | 22 | 129 | 1.6 | 4.8 | 0.00 | 0.00 | 0.00 | 99 | 1011.9 |
| 20260506132513 | 21 | 135 | 0.0 | 4.8 | 0.00 | 0.00 | 0.00 | 99 | 1010.0 |
| 20260506131540 | 22 | 176 | 1.6 | 6.4 | 0.00 | 0.00 | 0.00 | 99 | 1011.9 |
| 20260506130522 | 22 | 113 | 1.6 | 3.2 | 0.00 | 0.00 | 0.00 | 99 | 1011.7 |
| 20260506125524 | 22 | 59 | 1.6 | 4.8 | 0.00 | 0.00 | 0.00 | 99 | 1011.7 |
| 20260506125513 | 21 | 141 | 1.6 | 4.8 | 0.00 | 0.00 | 0.00 | 99 | 1009.8 |
| 20260506124547 | 22 | 164 | 1.6 | 6.4 | 0.00 | 0.00 | 0.00 | 99 | 1011.7 |
| 20260506123549 | 22 | 160 | 3.2 | 8.0 | 0.00 | 0.00 | 0.00 | 99 | 1011.4 |
| 20260506122532 | 22 | 123 | 3.2 | 6.4 | 0.00 | 0.00 | 0.00 | 99 | 1011.4 |
| 20260506122513 | 21 | 143 | 3.2 | 9.7 | 0.00 | 0.00 | 0.00 | 99 | 1009.5 |
| 20260506121516 | 22 | 152 | 4.8 | 8.0 | 0.00 | 0.00 | 0.00 | 99 | 1011.4 |
| 20260506120518 | 22 | 138 | 1.6 | 6.4 | 0.00 | 0.00 | 0.00 | 99 | 1011.3 |
| 20260506115527 | 22 | 147 | 3.2 | 6.4 | 0.00 | 0.00 | 0.00 | 99 | 1011.3 |
| 20260506115513 | 22 | 166 | 3.2 | 6.4 | 0.00 | 0.00 | 0.00 | 99 | 1009.4 |
| 20260506114516 | 22 | 176 | 4.8 | 9.7 | 0.00 | 0.00 | 0.00 | 99 | 1011.4 |
| 20260506113518 | 22 | 148 | 3.2 | 8.0 | 0.00 | 0.00 | 0.00 | 99 | 1011.5 |
| 20260506112521 | 22 | 146 | 3.2 | 6.4 | 0.00 | 0.00 | 0.00 | 99 | 1011.6 |
| 20260506112513 | 22 | 157 | 3.2 | 6.4 | 0.00 | 0.00 | 0.00 | 99 | 1009.8 |
| 20260506111522 | 22 | 168 | 3.2 | 6.4 | 0.00 | 0.00 | 0.00 | 99 | 1011.7 |
| 20260506110525 | 22 | 158 | 0.0 | 4.8 | 0.00 | 0.00 | 0.00 | 99 | 1011.7 |
| 20260506105527 | 22 | 145 | 3.2 | 4.8 | 0.00 | 0.00 | 0.00 | 99 | 1011.7 |
| 20260506105513 | 22 | 179 | 1.6 | 8.0 | 0.00 | 0.00 | 0.00 | 99 | 1009.7 |
| 20260506104529 | 22 | 192 | 3.2 | 8.0 | 0.00 | 0.00 | 0.00 | 99 | 1011.7 |
| 20260506103532 | 22 | 192 | 4.8 | 8.0 | 0.00 | 0.00 | 0.00 | 99 | 1011.5 |
| 20260506102517 | 22 | 94 | 6.4 | 14.5 | 0.00 | 0.00 | 0.00 | 99 | 1011.4 |
| 20260506102513 | 22 | 217 | 4.8 | 9.7 | 0.00 | 0.00 | 0.00 | 99 | 1009.6 |
| 20260506101518 | 22 | 165 | 4.8 | 11.3 | 0.00 | 0.00 | 0.00 | 99 | 1011.5 |
| 20260506100520 | 22 | 193 | 4.8 | 9.7 | 0.00 | 0.00 | 0.00 | 99 | 1011.4 |
| 20260506095522 | 22 | 138 | 6.4 | 9.7 | 0.00 | 0.00 | 0.00 | 99 | 1011.3 |
| 20260506095513 | 22 | 181 | 4.8 | 9.7 | 0.00 | 0.00 | 0.00 | 99 | 1009.4 |
| 20260506094524 | 22 | 175 | 4.8 | 9.7 | 0.00 | 0.00 | 0.00 | 99 | 1011.4 |
| 20260506093521 | 22 | 146 | 4.8 | 9.7 | 0.00 | 0.00 | 0.00 | 99 | 1011.3 |
| 20260506092522 | 22 | 162 | 6.4 | 12.9 | 0.00 | 0.00 | 0.00 | 99 | 1011.4 |
| 20260506092513 | 22 | 183 | 3.2 | 8.0 | 0.00 | 0.00 | 0.00 | 99 | 1009.4 |
| 20260506091525 | 22 | 172 | 6.4 | 12.9 | 0.00 | 0.00 | 0.00 | 99 | 1011.4 |
| 20260506090521 | 22 | 135 | 9.7 | 14.5 | 0.00 | 0.00 | 0.00 | 99 | 1011.2 |
| 20260506085517 | 22 | 145 | 4.8 | 8.0 | 0.00 | 0.00 | 0.00 | 99 | 1011.0 |
| 20260506085513 | 22 | 140 | 4.8 | 8.0 | 0.00 | 0.00 | 0.00 | 99 | 1008.9 |
| 20260506084531 | 22 | 178 | 8.0 | 12.9 | 0.00 | 0.00 | 0.00 | 99 | 1011.0 |
| 20260506083536 | 22 | 150 | 8.0 | 14.5 | 0.00 | 0.00 | 0.00 | 98 | 1010.9 |
| 20260506082518 | 22 | 199 | 6.4 | 12.9 | 0.00 | 0.00 | 0.00 | 97 | 1010.8 |
| 20260506082513 | 22 | 146 | 6.4 | 11.3 | 0.00 | 0.00 | 0.00 | 97 | 1008.7 |
| 20260506081520 | 23 | 119 | 8.0 | 12.9 | 0.00 | 0.00 | 0.00 | 96 | 1010.8 |
| 20260506080522 | 23 | 148 | 4.8 | 11.3 | 0.00 | 0.00 | 0.00 | 96 | 1010.9 |
| 20260506073528 | 23 | 159 | 9.7 | 14.5 | 0.00 | 0.00 | 0.00 | 95 | 1011.1 |
| 20260506072532 | 23 | 172 | 8.0 | 14.5 | 0.00 | 0.00 | 0.00 | 95 | 1011.2 |
| 20260506072513 | 23 | 189 | 8.0 | 11.3 | 0.00 | 0.00 | 0.00 | 95 | 1009.0 |
| 20260506071534 | 23 | 174 | 9.7 | 20.9 | 0.00 | 0.00 | 0.00 | 95 | 1011.2 |
| 20260506070537 | 23 | 190 | 8.0 | 16.1 | 0.00 | 0.00 | 0.00 | 95 | 1011.3 |
| 20260506062513 | 23 | 144 | 3.2 | 8.0 | 0.00 | 0.00 | 0.00 | 95 | 1009.3 |
| 20260506061535 | 23 | 172 | 3.2 | 12.9 | 0.00 | 0.00 | 0.00 | 95 | 1011.5 |
| 20260506060524 | 23 | 152 | 6.4 | 12.9 | 0.00 | 0.00 | 0.00 | 95 | 1011.5 |
| 20260506050539 | 21 | 124 | 1.6 | 4.8 | 0.00 | 0.00 | 0.00 | 98 | 1011.4 |
| 20260506044543 | 21 | 0.0 | 0.0 | 0.00 | 0.00 | 0.00 | 96 | 1011.5 | |
| 20260506043525 | 21 | 0.0 | 0.0 | 0.00 | 0.00 | 0.00 | 96 | 1011.5 | |
| 20260506042527 | 21 | 0.0 | 0.0 | 0.00 | 0.00 | 0.00 | 96 | 1011.5 | |
| 20260506042513 | 21 | 0 | 0.0 | 0.0 | 0.00 | 0.00 | 0.00 | 95 | 1009.5 |
| 20260506041529 | 21 | 0.0 | 0.0 | 0.00 | 0.00 | 0.00 | 95 | 1011.4 | |
| 20260506040524 | 22 | 0.0 | 0.0 | 0.00 | 0.00 | 0.00 | 95 | 1011.2 | |
| 20260506035520 | 22 | 0.0 | 0.0 | 0.00 | 0.00 | 0.00 | 94 | 1011.2 | |
| 20260506035513 | 22 | 0 | 0.0 | 0.0 | 0.00 | 0.00 | 0.00 | 94 | 1009.2 |
| 20260506034517 | 22 | 0.0 | 0.0 | 0.00 | 0.00 | 0.00 | 94 | 1011.1 | |
| 20260506033519 | 22 | 0.0 | 0.0 | 0.00 | 0.00 | 0.00 | 93 | 1011.0 | |
| 20260506032520 | 22 | 0.0 | 0.0 | 0.00 | 0.00 | 0.00 | 92 | 1010.9 | |
| 20260506032513 | 22 | 0 | 0.0 | 0.0 | 0.00 | 0.00 | 0.00 | 91 | 1008.6 |
| 20260506031523 | 22 | 0.0 | 0.0 | 0.00 | 0.00 | 0.00 | 91 | 1010.7 | |
| 20260506030605 | 23 | 0.0 | 0.0 | 0.00 | 0.00 | 0.00 | 91 | 1010.8 | |
| 20260506025527 | 23 | 0.0 | 0.0 | 0.00 | 0.00 | 0.00 | 90 | 1010.6 | |
| 20260506025513 | 23 | 0 | 0.0 | 0.0 | 0.00 | 0.00 | 0.00 | 89 | 1008.3 |
| 20260506024529 | 23 | 0.0 | 0.0 | 0.00 | 0.00 | 0.00 | 89 | 1010.3 | |
| 20260506023533 | 23 | 0.0 | 0.0 | 0.00 | 0.00 | 0.00 | 88 | 1010.1 | |
| 20260506022536 | 24 | 0.0 | 0.0 | 0.00 | 0.00 | 0.00 | 87 | 1009.9 | |
| 20260506022513 | 24 | 0 | 0.0 | 0.0 | 0.00 | 0.00 | 0.00 | 85 | 1007.3 |
| 20260506021518 | 25 | 0.0 | 0.0 | 0.00 | 0.00 | 0.00 | 85 | 1009.7 | |
| 20260506020520 | 25 | 68 | 0.0 | 1.6 | 0.00 | 0.00 | 0.00 | 83 | 1009.6 |
| 20260506020513 | 25 | 180 | 0.0 | 3.2 | 0.00 | 0.00 | 0.00 | 82 | 1006.9 |
| 20260506015523 | 25 | 113 | 0.0 | 3.2 | 0.00 | 0.00 | 0.00 | 82 | 1009.4 |
| 20260506014524 | 26 | 119 | 1.6 | 4.8 | 0.00 | 0.00 | 0.00 | 81 | 1009.3 |
| 20260506014513 | 26 | 165 | 1.6 | 4.8 | 0.00 | 0.00 | 0.00 | 79 | 1006.5 |
| 20260506013527 | 26 | 155 | 3.2 | 6.4 | 0.00 | 0.00 | 0.00 | 79 | 1009.1 |
| 20260506013513 | 26 | 173 | 3.2 | 6.4 | 0.00 | 0.00 | 0.00 | 78 | 1006.3 |
| 20260506012523 | 26 | 162 | 4.8 | 6.4 | 0.00 | 0.00 | 0.00 | 78 | 1009.0 |
| 20260506012513 | 26 | 153 | 1.6 | 6.4 | 0.00 | 0.00 | 0.00 | 76 | 1006.0 |
| 20260506012013 | 26 | 147 | 3.2 | 6.4 | 0.00 | 0.00 | 0.00 | 76 | 1006.0 |
| 20260506011541 | 27 | 148 | 4.8 | 6.4 | 0.00 | 0.00 | 0.00 | 76 | 1008.9 |
| 20260506011513 | 27 | 176 | 4.8 | 9.7 | 0.00 | 0.00 | 0.00 | 75 | 1005.8 |
| 20260506010901 | 27 | 152 | 6.4 | 9.7 | 0.00 | 0.00 | 0.00 | 74 | 1005.7 |
| 20260506010533 | 27 | 152 | 6.4 | 11.3 | 0.00 | 0.00 | 0.00 | 75 | 1008.8 |
| 20260506005530 | 28 | 155 | 6.4 | 12.9 | 0.00 | 0.00 | 0.00 | 73 | 1008.9 |
| 20260506004532 | 28 | 182 | 4.8 | 11.3 | 0.00 | 0.00 | 0.00 | 70 | 1008.8 |
| 20260506003901 | 29 | 137 | 3.2 | 8.0 | 0.00 | 0.00 | 0.00 | 67 | 1005.5 |
| 20260506003536 | 30 | 138 | 3.2 | 8.0 | 0.00 | 0.00 | 0.00 | 67 | 1008.9 |
| 20260506002518 | 30 | 162 | 3.2 | 6.4 | 0.00 | 0.00 | 0.00 | 65 | 1008.9 |
| 20260506001520 | 30 | 147 | 4.8 | 8.0 | 0.00 | 0.00 | 0.00 | 66 | 1008.9 |
| 20260506000901 | 29 | 191 | 4.8 | 4.8 | 0.00 | 0.00 | 0.00 | 66 | 1005.5 |
| 20260506000522 | 30 | 191 | 4.8 | 6.4 | 0.00 | 0.00 | 0.00 | 66 | 1008.9 |
| 20260505235524 | 30 | 200 | 3.2 | 9.7 | 0.00 | 0.00 | 0.00 | 65 | 1008.9 |
| 20260505234546 | 30 | 175 | 4.8 | 11.3 | 0.00 | 0.00 | 0.00 | 65 | 1009.0 |
| 20260505233901 | 30 | 170 | 4.8 | 9.7 | 0.00 | 0.00 | 0.00 | 64 | 1005.3 |
| 20260505233548 | 30 | 170 | 4.8 | 11.3 | 0.00 | 0.00 | 0.00 | 65 | 1008.8 |
| 20260505232530 | 30 | 141 | 6.4 | 12.9 | 0.00 | 0.00 | 0.00 | 64 | 1008.8 |
| 20260505231612 | 30 | 154 | 6.4 | 9.7 | 0.00 | 0.00 | 0.00 | 66 | 1008.8 |
| 20260505230901 | 29 | 155 | 6.4 | 8.0 | 0.00 | 0.00 | 0.00 | 66 | 1005.4 |
| 20260505230516 | 29 | 156 | 6.4 | 9.7 | 0.00 | 0.00 | 0.00 | 66 | 1008.8 |
| 20260505225518 | 29 | 189 | 8.0 | 11.3 | 0.00 | 0.00 | 0.00 | 67 | 1008.8 |
| 20260505224520 | 29 | 150 | 8.0 | 12.9 | 0.00 | 0.00 | 0.00 | 65 | 1008.8 |
| 20260505223901 | 30 | 134 | 6.4 | 12.9 | 0.00 | 0.00 | 0.00 | 64 | 1005.4 |
| 20260505223516 | 30 | 134 | 6.4 | 14.5 | 0.00 | 0.00 | 0.00 | 64 | 1008.9 |
| 20260505222524 | 30 | 170 | 4.8 | 9.7 | 0.00 | 0.00 | 0.00 | 64 | 1008.9 |
| 20260505221526 | 30 | 186 | 6.4 | 9.7 | 0.00 | 0.00 | 0.00 | 63 | 1008.9 |
| 20260505220901 | 30 | 187 | 4.8 | 6.4 | 0.00 | 0.00 | 0.00 | 63 | 1005.4 |
| 20260505220529 | 30 | 188 | 6.4 | 8.0 | 0.00 | 0.00 | 0.00 | 63 | 1008.9 |
| 20260505215531 | 30 | 207 | 6.4 | 8.0 | 0.00 | 0.00 | 0.00 | 62 | 1009.0 |
| 20260505214553 | 30 | 160 | 8.0 | 11.3 | 0.00 | 0.00 | 0.00 | 62 | 1009.0 |
| 20260505213901 | 30 | 182 | 8.0 | 14.5 | 0.00 | 0.00 | 0.00 | 61 | 1005.6 |
| 20260505213517 | 31 | 183 | 8.0 | 16.1 | 0.00 | 0.00 | 0.00 | 62 | 1009.1 |
| 20260505212558 | 30 | 147 | 4.8 | 9.7 | 0.00 | 0.00 | 0.00 | 63 | 1009.3 |
| 20260505211521 | 31 | 191 | 8.0 | 14.5 | 0.00 | 0.00 | 0.00 | 61 | 1009.3 |
| 20260505210901 | 31 | 213 | 4.8 | 9.7 | 0.00 | 0.00 | 0.00 | 60 | 1005.8 |
| 20260505210522 | 31 | 213 | 6.4 | 9.7 | 0.00 | 0.00 | 0.00 | 60 | 1009.6 |
| 20260505205545 | 31 | 176 | 9.7 | 12.9 | 0.00 | 0.00 | 0.00 | 61 | 1009.6 |
| 20260505204526 | 31 | 208 | 6.4 | 11.3 | 0.00 | 0.00 | 0.00 | 60 | 1009.6 |
| 20260505203901 | 30 | 137 | 9.7 | 16.1 | 0.00 | 0.00 | 0.00 | 61 | 1006.1 |
| 20260505203529 | 31 | 137 | 11.3 | 16.1 | 0.00 | 0.00 | 0.00 | 61 | 1009.7 |
| 20260505202525 | 30 | 151 | 8.0 | 16.1 | 0.00 | 0.00 | 0.00 | 62 | 1009.8 |
| 20260505201541 | 30 | 121 | 9.7 | 17.7 | 0.00 | 0.00 | 0.00 | 63 | 1009.9 |
| 20260505200901 | 30 | 116 | 6.4 | 12.9 | 0.00 | 0.00 | 0.00 | 62 | 1006.5 |
| 20260505200517 | 31 | 116 | 8.0 | 12.9 | 0.00 | 0.00 | 0.00 | 63 | 1010.1 |
| 20260505195519 | 30 | 146 | 9.7 | 14.5 | 0.00 | 0.00 | 0.00 | 64 | 1010.3 |
| 20260505194521 | 30 | 156 | 8.0 | 11.3 | 0.00 | 0.00 | 0.00 | 63 | 1010.3 |
| 20260505193901 | 30 | 171 | 8.0 | 11.3 | 0.00 | 0.00 | 0.00 | 63 | 1007.0 |
| 20260505193543 | 30 | 171 | 8.0 | 12.9 | 0.00 | 0.00 | 0.00 | 64 | 1010.5 |
| 20260505192525 | 30 | 175 | 8.0 | 12.9 | 0.00 | 0.00 | 0.00 | 65 | 1010.5 |
| 20260505191528 | 30 | 148 | 6.4 | 12.9 | 0.00 | 0.00 | 0.00 | 65 | 1010.6 |
| 20260505190901 | 28 | 178 | 8.0 | 11.3 | 0.00 | 0.00 | 0.00 | 65 | 1007.5 |
| 20260505190529 | 29 | 178 | 8.0 | 12.9 | 0.00 | 0.00 | 0.00 | 65 | 1010.8 |
| 20260505185551 | 29 | 220 | 6.4 | 14.5 | 0.00 | 0.00 | 0.00 | 65 | 1011.1 |
| 20260505184515 | 30 | 238 | 9.7 | 14.5 | 0.00 | 0.00 | 0.00 | 63 | 1011.3 |
| 20260505183901 | 29 | 143 | 6.4 | 9.7 | 0.00 | 0.00 | 0.00 | 65 | 1008.0 |
| 20260505183517 | 29 | 144 | 8.0 | 11.3 | 0.00 | 0.00 | 0.00 | 66 | 1011.4 |
| 20260505182539 | 29 | 143 | 8.0 | 12.9 | 0.00 | 0.00 | 0.00 | 67 | 1011.4 |
| 20260505181521 | 28 | 108 | 4.8 | 8.0 | 0.00 | 0.00 | 0.00 | 68 | 1011.5 |
| 20260505180901 | 28 | 132 | 4.8 | 9.7 | 0.00 | 0.00 | 0.00 | 68 | 1008.4 |
| 20260505180523 | 28 | 132 | 6.4 | 11.3 | 0.00 | 0.00 | 0.00 | 69 | 1011.7 |
| 20260505175526 | 28 | 182 | 6.4 | 11.3 | 0.00 | 0.00 | 0.00 | 68 | 1011.7 |
| 20260505174522 | 27 | 152 | 6.4 | 9.7 | 0.00 | 0.00 | 0.00 | 70 | 1011.8 |
| 20260505173901 | 27 | 205 | 4.8 | 9.7 | 0.00 | 0.00 | 0.00 | 70 | 1009.0 |
| 20260505173518 | 27 | 205 | 6.4 | 9.7 | 0.00 | 0.00 | 0.00 | 70 | 1012.0 |
| 20260505172532 | 27 | 198 | 9.7 | 16.1 | 0.00 | 0.00 | 0.00 | 72 | 1012.0 |
| 20260505171516 | 26 | 209 | 6.4 | 11.3 | 0.00 | 0.00 | 0.00 | 74 | 1012.0 |
| 20260505170901 | 25 | 191 | 8.0 | 11.3 | 0.00 | 0.00 | 0.00 | 77 | 1009.6 |
| 20260505170518 | 25 | 192 | 8.0 | 11.3 | 0.00 | 0.00 | 0.00 | 77 | 1012.2 |
| 20260505165520 | 25 | 205 | 6.4 | 8.0 | 0.00 | 0.00 | 0.00 | 79 | 1011.9 |
| 20260505164542 | 25 | 142 | 8.0 | 9.7 | 0.00 | 0.00 | 0.00 | 80 | 1012.0 |
| 20260505163901 | 23 | 223 | 6.4 | 11.3 | 0.00 | 0.00 | 0.00 | 81 | 1009.7 |
| 20260505163525 | 24 | 224 | 6.4 | 11.3 | 0.00 | 0.00 | 0.00 | 81 | 1012.0 |
| 20260505162526 | 23 | 204 | 6.4 | 8.0 | 0.00 | 0.00 | 0.00 | 86 | 1012.0 |
| 20260505161529 | 22 | 185 | 8.0 | 12.9 | 0.00 | 0.00 | 0.00 | 86 | 1011.9 |
| 20260505160901 | 22 | 219 | 6.4 | 8.0 | 0.00 | 0.00 | 0.00 | 87 | 1009.9 |
| 20260505160531 | 22 | 219 | 6.4 | 9.7 | 0.00 | 0.00 | 0.00 | 87 | 1011.9 |
| 20260505152522 | 22 | 180 | 4.8 | 9.7 | 0.00 | 0.00 | 0.00 | 91 | 1011.9 |
| 20260505151524 | 21 | 170 | 6.4 | 11.3 | 0.00 | 0.00 | 0.00 | 93 | 1011.9 |
| 20260505150901 | 21 | 189 | 6.4 | 9.7 | 0.00 | 0.00 | 0.00 | 93 | 1010.4 |
| 20260505150520 | 21 | 189 | 6.4 | 11.3 | 0.00 | 0.00 | 0.00 | 93 | 1012.2 |
| 20260505140521 | 20 | 174 | 6.4 | 11.3 | 0.00 | 0.00 | 0.00 | 99 | 1011.7 |